Maghull, United Kingdom
Current Conditions -  °F | °C
As of 9:50 PM on Thursday 27 Nov 2014 (Local Time) from EGGP Reporting Station
Few Clouds Few Clouds  
Wind Chill: 37°   Ceiling: Unl
Heat Index: 43°   Visibility: 6mi
Dew Point: 41°   Wind: 9mph
Humidity: 93%   Direction: 110°ESE
Pressure: 29.59"   Gusts: NA
Location:  53.52°N, 2.95°W
Report Text: EGGP 272150Z 11008KT 9000 FEW044 06/05 Q1002
Loading
Personal Weather Stations






























Interactive Weather Map New forecast layout! Learn more

10-Day Weather Forecast

Advertisements
Track Severe Weather on mobile